sat.trackr.live / text

‹ back to catalog

UNKNOWN

NORAD 87561

UNKNOWN UNKNOWN UNKNOWN

§ Identity

Operator
Country
Launch date
Launch site
Launch vehicle
Mass (kg)
RCS (m²)

External: N2YO · Heavens-Above

§ Orbital elements

Epoch: 2026-09-16T09:24:25.158240Z

Period
116.87 min
Inclination
101.9760°
Eccentricity
0.0175200
Mean motion
12.32146001 rev/d
Perigee alt
1,401.3 km
Apogee alt
1,678.8 km
Semi-major
7,918.2 km
B*
-4.3947e-4
RAAN
313.8230°
Arg perigee
144.1603°
Mean anomaly
284.1819°
Rev number
57,663

§ Raw data

UNKNOWN1 87561U          26259.39195785 -.00000099  00000+0 -43947-3 0  99972 87561 101.9760 313.8230 0175200 144.1603 284.1819 12.32146001576637

JSON: /api/v1/satellites/87561 · /tle

For live sub-satellite position, see the globe view (requires WebGL).

§ Visibility from observer

Set your observer location to see the next 7 days of passes ≥ 10°. The values pass through the URL so the page stays shareable.

No JS? Fill the form by hand. The geolocation button needs JavaScript.